Location: ???? ??
(36.0534°N, 43.5630°E)
Time: 05:03:34
(UTC+00:00)

Cosmos 1025 Rocket - Pass Details

Date: 18 September 2019
Orbit: 593 x 619 km, 82.5° (Epoch: 15 October)

Event Time Altitude Azimuth Distance (km) Brightness Sun altitude
Rises 16:05:45 0° 352° (N) 2,839 6.7 -12.1°
Reaches altitude 10° 16:07:58 10° 353° (N) 1,932 5.8 -12.6°
Maximum altitude 16:12:14 89° 262° (W) 599 2.9 -13.4°
Drops below altitude 10° 16:16:29 10° 175° (S) 1,919 5.4 -14.3°
Sets 16:18:40 0° 175° (S) 2,818 6.3 -14.7°
